When you browse on this site, cookies collect data to enhance your experience and personalize the content and advertising you see.
Visit our Privacy Policy to learn more. By continuing to use the site, you agree to this use of cookies and data.

Meteo orario Kramatorsk

Oggi, 21 Settembre, Lunedi

Tempo Temperatura Precipitazioni Vento Pressione Umidità
00:00 +9°C° 0 mm 2 m/s 759 mm Hg 63%
01:00 +8°C° 0 mm 2 m/s 759 mm Hg 65%
02:00 +9°C° 0 mm 1 m/s 760 mm Hg 66%
03:00 +8°C° 0 mm 1 m/s 760 mm Hg 68%
04:00 +8°C° 0 mm 1 m/s 760 mm Hg 69%
05:00 +7°C° 0 mm 1 m/s 760 mm Hg 71%
06:00 +6°C° 0 mm 0 m/s 760 mm Hg 73%
07:00 +8°C° 0 mm 0 m/s 760 mm Hg 63%
08:00 +11°C° 0 mm 0 m/s 760 mm Hg 53%
09:00 +14°C° 0 mm 0 m/s 761 mm Hg 42%
10:00 +16°C° 0 mm 1 m/s 760 mm Hg 37%
11:00 +19°C° 0 mm 1 m/s 760 mm Hg 32%
12:00 +19°C° 0 mm 2 m/s 760 mm Hg 27%
13:00 +20°C° 0 mm 2 m/s 760 mm Hg 24%
14:00 +21°C° 0 mm 2 m/s 759 mm Hg 22%
15:00 +23°C° 0 mm 2 m/s 759 mm Hg 20%
16:00 +21°C° 0 mm 2 m/s 759 mm Hg 22%
17:00 +20°C° 0 mm 1 m/s 758 mm Hg 23%
18:00 +19°C° 0 mm 1 m/s 758 mm Hg 25%
19:00 +16°C° 0 mm 1 m/s 758 mm Hg 29%
20:00 +15°C° 0 mm 1 m/s 759 mm Hg 32%
21:00 +13°C° 0 mm 1 m/s 759 mm Hg 35%
22:00 +11°C° 0 mm 0 m/s 759 mm Hg 37%
23:00 +11°C° 0 mm 0 m/s 759 mm Hg 39%

Domani, 22 Settembre, Martedi

Tempo Temperatura Precipitazioni Vento Pressione Umidità
00:00 +10°C° 0 mm 0 m/s 759 mm Hg 40%
01:00 +10°C° 0 mm 0 m/s 759 mm Hg 42%
02:00 +10°C° 0 mm 0 m/s 759 mm Hg 43%
03:00 +9°C° 0 mm 0 m/s 759 mm Hg 45%
04:00 +9°C° 0 mm 0 m/s 759 mm Hg 47%
05:00 +8°C° 0 mm 0 m/s 759 mm Hg 48%
06:00 +8°C° 0 mm 0 m/s 759 mm Hg 50%
07:00 +11°C° 0 mm 0 m/s 760 mm Hg 44%
08:00 +14°C° 0 mm 0 m/s 760 mm Hg 37%
09:00 +16°C° 0 mm 0 m/s 760 mm Hg 31%
10:00 +18°C° 0 mm 0 m/s 760 mm Hg 29%
11:00 +22°C° 0 mm 1 m/s 760 mm Hg 26%
12:00 +24°C° 0 mm 1 m/s 760 mm Hg 23%
13:00 +25°C° 0 mm 1 m/s 760 mm Hg 21%
14:00 +26°C° 0 mm 1 m/s 759 mm Hg 20%
15:00 +26°C° 0 mm 1 m/s 759 mm Hg 19%
16:00 +25°C° 0 mm 1 m/s 759 mm Hg 21%
17:00 +23°C° 0 mm 1 m/s 758 mm Hg 23%
18:00 +22°C° 0 mm 1 m/s 758 mm Hg 25%
19:00 +18°C° 0 mm 0 m/s 758 mm Hg 28%
20:00 +16°C° 0 mm 0 m/s 758 mm Hg 31%
21:00 +15°C° 0 mm 0 m/s 758 mm Hg 33%
22:00 +14°C° 0 mm 0 m/s 758 mm Hg 35%
23:00 +13°C° 0 mm 0 m/s 758 mm Hg 36%

Dopodomani, 23 Settembre, Mercoledi

Tempo Temperatura Precipitazioni Vento Pressione Umidità
00:00 +13°C° 0 mm 0 m/s 758 mm Hg 37%
01:00 +12°C° 0 mm 0 m/s 758 mm Hg 38%
02:00 +12°C° 0 mm 0 m/s 758 mm Hg 39%
03:00 +12°C° 0 mm 0 m/s 758 mm Hg 40%
04:00 +11°C° 0 mm 0 m/s 758 mm Hg 41%
05:00 +11°C° 0 mm 0 m/s 758 mm Hg 42%
06:00 +11°C° 0 mm 0 m/s 758 mm Hg 43%
07:00 +15°C° 0 mm 1 m/s 758 mm Hg 37%
08:00 +18°C° 0 mm 1 m/s 758 mm Hg 32%
09:00 +21°C° 0 mm 1 m/s 758 mm Hg 27%
10:00 +23°C° 0 mm 2 m/s 758 mm Hg 24%
11:00 +25°C° 0 mm 2 m/s 758 mm Hg 20%
12:00 +27°C° 0 mm 2 m/s 757 mm Hg 17%
13:00 +27°C° 0 mm 2 m/s 757 mm Hg 16%
14:00 +28°C° 0 mm 2 m/s 756 mm Hg 15%
15:00 +29°C° 0 mm 2 m/s 756 mm Hg 14%
16:00 +27°C° 0 mm 2 m/s 756 mm Hg 16%
17:00 +26°C° 0 mm 2 m/s 755 mm Hg 18%
18:00 +24°C° 0 mm 2 m/s 755 mm Hg 20%
19:00 +21°C° 0 mm 2 m/s 755 mm Hg 22%
20:00 +19°C° 0 mm 2 m/s 755 mm Hg 25%
21:00 +18°C° 0 mm 2 m/s 756 mm Hg 27%
22:00 +17°C° 0 mm 2 m/s 755 mm Hg 29%
23:00 +16°C° 0 mm 2 m/s 755 mm Hg 30%

24 Settembre, Giovedi

Tempo Temperatura Precipitazioni Vento Pressione Umidità
00:00 +16°C° 0 mm 2 m/s 755 mm Hg 32%
01:00 +15°C° 0 mm 2 m/s 755 mm Hg 33%
02:00 +15°C° 0 mm 2 m/s 755 mm Hg 35%
03:00 +15°C° 0 mm 2 m/s 755 mm Hg 36%
04:00 +14°C° 0 mm 2 m/s 755 mm Hg 37%
05:00 +14°C° 0 mm 2 m/s 755 mm Hg 38%
06:00 +14°C° 0 mm 2 m/s 755 mm Hg 39%
07:00 +16°C° 0 mm 2 m/s 755 mm Hg 36%
08:00 +19°C° 0 mm 3 m/s 755 mm Hg 32%
09:00 +21°C° 0 mm 3 m/s 756 mm Hg 29%
10:00 +23°C° 0 mm 4 m/s 755 mm Hg 26%
11:00 +26°C° 0 mm 4 m/s 755 mm Hg 24%
12:00 +28°C° 0 mm 5 m/s 755 mm Hg 21%
13:00 +29°C° 0 mm 5 m/s 755 mm Hg 21%
14:00 +29°C° 0 mm 5 m/s 755 mm Hg 20%
15:00 +29°C° 0 mm 5 m/s 755 mm Hg 20%
16:00 +28°C° 0 mm 5 m/s 754 mm Hg 22%
17:00 +26°C° 0 mm 4 m/s 754 mm Hg 24%
18:00 +25°C° 0 mm 3 m/s 754 mm Hg 27%
19:00 +22°C° 0 mm 3 m/s 754 mm Hg 30%
20:00 +21°C° 0 mm 3 m/s 754 mm Hg 33%
21:00 +19°C° 0 mm 3 m/s 755 mm Hg 36%
22:00 +18°C° 0 mm 3 m/s 755 mm Hg 37%
23:00 +18°C° 0 mm 3 m/s 754 mm Hg 39%

25 Settembre, Venerdi

Tempo Temperatura Precipitazioni Vento Pressione Umidità
00:00 +17°C° 0 mm 3 m/s 754 mm Hg 40%
01:00 +16°C° 0 mm 3 m/s 754 mm Hg 42%
02:00 +16°C° 0 mm 3 m/s 754 mm Hg 43%
03:00 +16°C° 0 mm 3 m/s 754 mm Hg 44%
04:00 +14°C° 0 mm 3 m/s 754 mm Hg 45%
05:00 +14°C° 0 mm 3 m/s 755 mm Hg 47%
06:00 +14°C° 0 mm 3 m/s 755 mm Hg 48%
07:00 +17°C° 0 mm 4 m/s 755 mm Hg 43%
08:00 +19°C° 0 mm 5 m/s 755 mm Hg 37%
09:00 +21°C° 0 mm 6 m/s 755 mm Hg 32%
10:00 +23°C° 0 mm 6 m/s 755 mm Hg 28%
11:00 +26°C° 0 mm 7 m/s 754 mm Hg 24%
12:00 +28°C° 0 mm 7 m/s 754 mm Hg 20%
13:00 +29°C° 0 mm 7 m/s 754 mm Hg 20%
14:00 +29°C° 0 mm 7 m/s 754 mm Hg 19%
15:00 +30°C° 0 mm 7 m/s 753 mm Hg 19%
16:00 +28°C° 0 mm 6 m/s 753 mm Hg 21%
17:00 +27°C° 0 mm 5 m/s 753 mm Hg 23%
18:00 +26°C° 0 mm 4 m/s 753 mm Hg 24%
19:00 +25°C° 0 mm 5 m/s 753 mm Hg 27%
20:00 +23°C° 0 mm 5 m/s 753 mm Hg 30%
21:00 +22°C° 0 mm 6 m/s 753 mm Hg 33%
22:00 +21°C° 0 mm 5 m/s 753 mm Hg 34%
23:00 +20°C° 0 mm 5 m/s 753 mm Hg 35%

26 Settembre, Sabato

Tempo Temperatura Precipitazioni Vento Pressione Umidità
00:00 +19°C° 0 mm 5 m/s 753 mm Hg 37%
01:00 +19°C° 0 mm 5 m/s 753 mm Hg 38%
02:00 +17°C° 0 mm 5 m/s 753 mm Hg 39%
03:00 +18°C° 0 mm 4 m/s 753 mm Hg 40%
04:00 +17°C° 0 mm 4 m/s 753 mm Hg 41%
05:00 +17°C° 0 mm 4 m/s 753 mm Hg 43%
06:00 +15°C° 0 mm 4 m/s 753 mm Hg 44%
07:00 +17°C° 0 mm 5 m/s 753 mm Hg 39%
08:00 +20°C° 0 mm 6 m/s 753 mm Hg 35%
09:00 +21°C° 0 mm 6 m/s 753 mm Hg 31%
10:00 +23°C° 0 mm 6 m/s 753 mm Hg 26%
11:00 +27°C° 0 mm 7 m/s 753 mm Hg 22%
12:00 +29°C° 0 mm 7 m/s 753 mm Hg 18%
13:00 +29°C° 0 mm 7 m/s 753 mm Hg 18%
14:00 +30°C° 0 mm 7 m/s 753 mm Hg 17%
15:00 +30°C° 0 mm 7 m/s 753 mm Hg 17%
16:00 +29°C° 0 mm 6 m/s 753 mm Hg 19%
17:00 +28°C° 0 mm 6 m/s 753 mm Hg 21%
18:00 +26°C° 0 mm 5 m/s 753 mm Hg 24%
19:00 +25°C° 0 mm 5 m/s 753 mm Hg 26%
20:00 +23°C° 0 mm 6 m/s 753 mm Hg 29%
21:00 +22°C° 0 mm 7 m/s 753 mm Hg 32%
22:00 +22°C° 0 mm 7 m/s 754 mm Hg 33%
23:00 +21°C° 0 mm 6 m/s 754 mm Hg 34%
Mostrare altro